Terug naar catalogus

STARLINK-11550

ActiefCommunicatieVLEO
NORAD 63052·PAYLOAD·🇺🇸 United States

Gelanceerd Feb 21, 2025 vanaf Cape Canaveral Space Force Station

Loading…

Volgende Passages (komende 24 uur)

TLE

VersSource: CelesTrak SupGP

Epoch: Sep 15, 2026, 02:39 UTC

1 63052C 25035A   26258.11090278  .00044636  00000+0  34684-3 0  2580
2 63052  43.0001 313.3575 0001411 267.5559 118.0412 15.70806216    13

Volg STARLINK-11550 in realtime met AllMySat

Download on the App Store